Time,TemperatureF,DewpointF,PressureIn,WindDirection,WindDirectionDegrees,WindSpeedMPH,WindSpeedGustMPH,Humidity,HourlyPrecipIn,Conditions,Clouds,dailyrainin,SoftwareType,DateUTC
2013-02-10 00:00:00,66.0,-99.9,29.84,SSE,163,16.0,19.0,-999,-99.99,,,-99.99,,2013-02-10 06:00:00,
2013-02-10 00:32:00,66.0,-99.9,29.84,SSE,163,16.0,19.0,-999,-99.99,,,-99.99,,2013-02-10 06:32:00,
2013-02-10 00:42:00,66.0,-99.9,29.84,SSE,163,16.0,19.0,-999,-99.99,,,-99.99,,2013-02-10 06:42:00,
2013-02-10 00:52:00,66.0,-99.9,29.84,SSE,163,16.0,19.0,-999,-99.99,,,-99.99,,2013-02-10 06:52:00,
2013-02-10 01:00:00,66.0,-99.9,29.83,SSE,167,16.0,20.0,-999,-99.99,,,-99.99,,2013-02-10 07:00:00,
2013-02-10 01:32:00,66.0,-99.9,29.83,SSE,167,16.0,20.0,-999,-99.99,,,-99.99,,2013-02-10 07:32:00,
2013-02-10 01:42:00,66.0,-99.9,29.83,SSE,167,16.0,20.0,-999,-99.99,,,-99.99,,2013-02-10 07:42:00,
2013-02-10 01:52:00,66.0,-99.9,29.83,SSE,167,16.0,20.0,-999,-99.99,,,-99.99,,2013-02-10 07:52:00,
2013-02-10 02:00:00,66.0,-99.9,29.81,SSE,154,14.0,15.0,-999,-99.99,,,-99.99,,2013-02-10 08:00:00,
2013-02-10 02:32:00,66.0,-99.9,29.81,SSE,154,14.0,15.0,-999,-99.99,,,-99.99,,2013-02-10 08:32:00,
2013-02-10 02:43:00,66.0,-99.9,29.81,SSE,154,14.0,15.0,-999,-99.99,,,-99.99,,2013-02-10 08:43:00,
2013-02-10 02:52:00,66.0,-99.9,29.81,SSE,154,14.0,15.0,-999,-99.99,,,-99.99,,2013-02-10 08:52:00,
2013-02-10 03:00:00,65.0,-99.9,29.79,SSE,154,19.0,21.0,-999,-99.99,,,-99.99,,2013-02-10 09:00:00,
2013-02-10 03:32:00,65.0,-99.9,29.79,SSE,154,19.0,21.0,-999,-99.99,,,-99.99,,2013-02-10 09:32:00,
2013-02-10 03:42:00,65.0,-99.9,29.79,SSE,154,19.0,21.0,-999,-99.99,,,-99.99,,2013-02-10 09:42:00,
2013-02-10 03:52:00,65.0,-99.9,29.79,SSE,154,19.0,21.0,-999,-99.99,,,-99.99,,2013-02-10 09:52:00,
2013-02-10 04:00:00,66.0,-99.9,29.79,SSE,154,13.0,15.0,-999,-99.99,,,-99.99,,2013-02-10 10:00:00,
2013-02-10 04:32:00,66.0,-99.9,29.79,SSE,154,13.0,15.0,-999,-99.99,,,-99.99,,2013-02-10 10:32:00,
2013-02-10 04:42:00,66.0,-99.9,29.79,SSE,154,13.0,15.0,-999,-99.99,,,-99.99,,2013-02-10 10:42:00,
2013-02-10 04:52:00,66.0,-99.9,29.79,SSE,154,13.0,15.0,-999,-99.99,,,-99.99,,2013-02-10 10:52:00,
2013-02-10 05:00:00,66.0,-99.9,29.80,SE,136,11.0,14.0,-999,-99.99,,,-99.99,,2013-02-10 11:00:00,
2013-02-10 05:32:00,66.0,-99.9,29.80,SE,136,11.0,14.0,-999,-99.99,,,-99.99,,2013-02-10 11:32:00,
2013-02-10 05:42:00,66.0,-99.9,29.80,SE,136,11.0,14.0,-999,-99.99,,,-99.99,,2013-02-10 11:42:00,
2013-02-10 05:52:00,66.0,-99.9,29.80,SE,136,11.0,14.0,-999,-99.99,,,-99.99,,2013-02-10 11:52:00,
2013-02-10 06:00:00,65.0,-99.9,29.80,SE,136,13.0,15.0,-999,-99.99,,,-99.99,,2013-02-10 12:00:00,
2013-02-10 06:32:00,65.0,-99.9,29.80,SE,136,13.0,15.0,-999,-99.99,,,-99.99,,2013-02-10 12:32:00,
2013-02-10 06:42:00,65.0,-99.9,29.80,SE,136,13.0,15.0,-999,-99.99,,,-99.99,,2013-02-10 12:42:00,
2013-02-10 06:52:00,65.0,-99.9,29.80,SE,136,13.0,15.0,-999,-99.99,,,-99.99,,2013-02-10 12:52:00,
2013-02-10 07:00:00,66.0,-99.9,29.81,SE,144,10.0,12.0,-999,-99.99,,,-99.99,,2013-02-10 13:00:00,
2013-02-10 07:32:00,66.0,-99.9,29.81,SE,144,10.0,12.0,-999,-99.99,,,-99.99,,2013-02-10 13:32:00,
2013-02-10 07:42:00,66.0,-99.9,29.81,SE,144,10.0,12.0,-999,-99.99,,,-99.99,,2013-02-10 13:42:00,
2013-02-10 07:52:00,66.0,-99.9,29.81,SE,144,10.0,12.0,-999,-99.99,,,-99.99,,2013-02-10 13:52:00,
2013-02-10 08:00:00,65.0,-99.9,29.82,SSE,160,11.0,13.0,-999,-99.99,,,-99.99,,2013-02-10 14:00:00,
2013-02-10 08:22:00,65.0,-99.9,29.82,SSE,160,11.0,13.0,-999,-99.99,,,-99.99,,2013-02-10 14:22:00,
2013-02-10 08:32:00,65.0,-99.9,29.82,SSE,160,11.0,13.0,-999,-99.99,,,-99.99,,2013-02-10 14:32:00,
2013-02-10 08:42:00,65.0,-99.9,29.82,SSE,160,11.0,13.0,-999,-99.99,,,-99.99,,2013-02-10 14:42:00,
2013-02-10 08:52:00,65.0,-99.9,29.82,SSE,160,11.0,13.0,-999,-99.99,,,-99.99,,2013-02-10 14:52:00,
2013-02-10 09:00:00,67.0,-99.9,29.84,South,183,11.0,13.0,-999,-99.99,,,-99.99,,2013-02-10 15:00:00,
2013-02-10 09:32:00,67.0,-99.9,29.84,South,183,11.0,13.0,-999,-99.99,,,-99.99,,2013-02-10 15:32:00,
2013-02-10 09:42:00,67.0,-99.9,29.84,South,183,11.0,13.0,-999,-99.99,,,-99.99,,2013-02-10 15:42:00,
2013-02-10 09:52:00,67.0,-99.9,29.84,South,183,11.0,13.0,-999,-99.99,,,-99.99,,2013-02-10 15:52:00,
2013-02-10 10:00:00,66.0,-99.9,29.87,South,187,6.0,7.0,-999,-99.99,,,-99.99,,2013-02-10 16:00:00,
2013-02-10 10:32:00,66.0,-99.9,29.87,South,187,6.0,7.0,-999,-99.99,,,-99.99,,2013-02-10 16:32:00,
2013-02-10 10:42:00,66.0,-99.9,29.87,South,187,6.0,7.0,-999,-99.99,,,-99.99,,2013-02-10 16:42:00,
2013-02-10 10:52:00,66.0,-99.9,29.87,South,187,6.0,7.0,-999,-99.99,,,-99.99,,2013-02-10 16:52:00,
2013-02-10 11:00:00,69.0,-99.9,29.88,WSW,240,7.0,9.0,-999,-99.99,,,-99.99,,2013-02-10 17:00:00,
2013-02-10 11:32:00,69.0,-99.9,29.88,WSW,240,7.0,9.0,-999,-99.99,,,-99.99,,2013-02-10 17:32:00,
2013-02-10 11:42:00,69.0,-99.9,29.88,WSW,240,7.0,9.0,-999,-99.99,,,-99.99,,2013-02-10 17:42:00,
2013-02-10 11:53:00,69.0,-99.9,29.88,WSW,240,7.0,9.0,-999,-99.99,,,-99.99,,2013-02-10 17:53:00,
2013-02-10 12:00:00,68.0,-99.9,29.87,WSW,245,8.0,9.0,-999,-99.99,,,-99.99,,2013-02-10 18:00:00,
2013-02-10 12:32:00,68.0,-99.9,29.87,WSW,245,8.0,9.0,-999,-99.99,,,-99.99,,2013-02-10 18:32:00,
2013-02-10 12:42:00,68.0,-99.9,29.87,WSW,245,8.0,9.0,-999,-99.99,,,-99.99,,2013-02-10 18:42:00,
2013-02-10 12:52:00,68.0,-99.9,29.87,WSW,245,8.0,9.0,-999,-99.99,,,-99.99,,2013-02-10 18:52:00,
2013-02-10 13:00:00,70.0,-99.9,29.83,SW,220,13.0,15.0,-999,-99.99,,,-99.99,,2013-02-10 19:00:00,
2013-02-10 13:32:00,70.0,-99.9,29.83,SW,220,13.0,15.0,-999,-99.99,,,-99.99,,2013-02-10 19:32:00,
2013-02-10 13:43:00,70.0,-99.9,29.83,SW,220,13.0,15.0,-999,-99.99,,,-99.99,,2013-02-10 19:43:00,
2013-02-10 13:52:00,70.0,-99.9,29.83,SW,220,13.0,15.0,-999,-99.99,,,-99.99,,2013-02-10 19:52:00,
2013-02-10 14:00:00,63.0,-99.9,29.85,North,6,18.0,21.0,-999,-99.99,,,-99.99,,2013-02-10 20:00:00,
2013-02-10 14:32:00,63.0,-99.9,29.85,North,6,18.0,21.0,-999,-99.99,,,-99.99,,2013-02-10 20:32:00,
2013-02-10 14:42:00,63.0,-99.9,29.85,North,6,18.0,21.0,-999,-99.99,,,-99.99,,2013-02-10 20:42:00,
2013-02-10 14:53:00,63.0,-99.9,29.85,North,6,18.0,21.0,-999,-99.99,,,-99.99,,2013-02-10 20:53:00,
2013-02-10 15:00:00,63.0,-99.9,29.84,NNE,32,16.0,20.0,-999,-99.99,,,-99.99,,2013-02-10 21:00:00,
2013-02-10 15:32:00,63.0,-99.9,29.84,NNE,32,16.0,20.0,-999,-99.99,,,-99.99,,2013-02-10 21:32:00,
2013-02-10 15:42:00,63.0,-99.9,29.84,NNE,32,16.0,20.0,-999,-99.99,,,-99.99,,2013-02-10 21:42:00,
2013-02-10 15:52:00,63.0,-99.9,29.84,NNE,32,16.0,20.0,-999,-99.99,,,-99.99,,2013-02-10 21:52:00,
2013-02-10 16:00:00,63.0,-99.9,29.84,NNE,23,15.0,17.0,-999,-99.99,,,-99.99,,2013-02-10 22:00:00,
2013-02-10 16:32:00,63.0,-99.9,29.84,NNE,23,15.0,17.0,-999,-99.99,,,-99.99,,2013-02-10 22:32:00,
2013-02-10 16:42:00,63.0,-99.9,29.84,NNE,23,15.0,17.0,-999,-99.99,,,-99.99,,2013-02-10 22:42:00,
2013-02-10 16:53:00,63.0,-99.9,29.84,NNE,23,15.0,17.0,-999,-99.99,,,-99.99,,2013-02-10 22:53:00,
2013-02-10 17:00:00,64.0,-99.9,29.85,NNE,31,16.0,17.0,-999,-99.99,,,-99.99,,2013-02-10 23:00:00,
2013-02-10 17:32:00,64.0,-99.9,29.85,NNE,31,16.0,17.0,-999,-99.99,,,-99.99,,2013-02-10 23:32:00,
2013-02-10 17:42:00,64.0,-99.9,29.85,NNE,31,16.0,17.0,-999,-99.99,,,-99.99,,2013-02-10 23:42:00,
2013-02-10 17:52:00,64.0,-99.9,29.85,NNE,31,16.0,17.0,-999,-99.99,,,-99.99,,2013-02-10 23:52:00,
2013-02-10 18:00:00,64.0,-99.9,29.86,NE,39,13.0,17.0,-999,-99.99,,,-99.99,,2013-02-11 00:00:00,
2013-02-10 18:32:00,64.0,-99.9,29.86,NE,39,13.0,17.0,-999,-99.99,,,-99.99,,2013-02-11 00:32:00,
2013-02-10 18:42:00,64.0,-99.9,29.86,NE,39,13.0,17.0,-999,-99.99,,,-99.99,,2013-02-11 00:42:00,
2013-02-10 18:52:00,64.0,-99.9,29.86,NE,39,13.0,17.0,-999,-99.99,,,-99.99,,2013-02-11 00:52:00,
2013-02-10 19:00:00,64.0,-99.9,29.88,NE,40,14.0,16.0,-999,-99.99,,,-99.99,,2013-02-11 01:00:00,
2013-02-10 19:32:00,64.0,-99.9,29.88,NE,40,14.0,16.0,-999,-99.99,,,-99.99,,2013-02-11 01:32:00,
2013-02-10 19:42:00,64.0,-99.9,29.88,NE,40,14.0,16.0,-999,-99.99,,,-99.99,,2013-02-11 01:42:00,
2013-02-10 19:52:00,64.0,-99.9,29.88,NE,40,14.0,16.0,-999,-99.99,,,-99.99,,2013-02-11 01:52:00,
2013-02-10 20:00:00,64.0,-99.9,29.88,NE,47,15.0,17.0,-999,-99.99,,,-99.99,,2013-02-11 02:00:00,
2013-02-10 20:32:00,64.0,-99.9,29.88,NE,47,15.0,17.0,-999,-99.99,,,-99.99,,2013-02-11 02:32:00,
2013-02-10 20:42:00,64.0,-99.9,29.88,NE,47,15.0,17.0,-999,-99.99,,,-99.99,,2013-02-11 02:42:00,
2013-02-10 20:52:00,64.0,-99.9,29.88,NE,47,15.0,17.0,-999,-99.99,,,-99.99,,2013-02-11 02:52:00,
2013-02-10 21:00:00,64.0,-99.9,29.91,NE,49,12.0,14.0,-999,-99.99,,,-99.99,,2013-02-11 03:00:00,
2013-02-10 21:32:00,64.0,-99.9,29.91,NE,49,12.0,14.0,-999,-99.99,,,-99.99,,2013-02-11 03:32:00,
2013-02-10 21:42:00,64.0,-99.9,29.91,NE,49,12.0,14.0,-999,-99.99,,,-99.99,,2013-02-11 03:42:00,
2013-02-10 21:52:00,64.0,-99.9,29.91,NE,49,12.0,14.0,-999,-99.99,,,-99.99,,2013-02-11 03:52:00,
2013-02-10 22:00:00,64.0,-99.9,29.92,NE,49,13.0,15.0,-999,-99.99,,,-99.99,,2013-02-11 04:00:00,
2013-02-10 22:22:00,64.0,-99.9,29.92,NE,49,13.0,15.0,-999,-99.99,,,-99.99,,2013-02-11 04:22:00,
2013-02-10 22:32:00,64.0,-99.9,29.92,NE,49,13.0,15.0,-999,-99.99,,,-99.99,,2013-02-11 04:32:00,
2013-02-10 22:42:00,64.0,-99.9,29.92,NE,49,13.0,15.0,-999,-99.99,,,-99.99,,2013-02-11 04:42:00,
2013-02-10 22:52:00,64.0,-99.9,29.92,NE,49,13.0,15.0,-999,-99.99,,,-99.99,,2013-02-11 04:52:00,
2013-02-10 23:00:00,64.0,-99.9,29.90,ENE,72,12.0,15.0,-999,-99.99,,,-99.99,,2013-02-11 05:00:00,
2013-02-10 23:32:00,64.0,-99.9,29.90,ENE,72,12.0,15.0,-999,-99.99,,,-99.99,,2013-02-11 05:32:00,
2013-02-10 23:42:00,64.0,-99.9,29.90,ENE,72,12.0,15.0,-999,-99.99,,,-99.99,,2013-02-11 05:42:00,
2013-02-10 23:53:00,64.0,-99.9,29.90,ENE,72,12.0,15.0,-999,-99.99,,,-99.99,,2013-02-11 05:53:00,